This demonstration page uses our WeatherBlox Daily Observations layout. Learn more.

Left ArrowRight Arrow

40.92501, -98.34201

Hourly Observations for June 4, 2015

Temp ( °F °C ) Dew Point ( °F °C ) Humidity (%) Winds ( mph kmh ) Pressure ( in mb ) Visibility ( mi km ) Precip ( " mm )
12:53 am 00:53 Mostly Cloudy 69 20.6 64 17.8 84 84 E 7 11 29.91 1013 10 16 0.00 0.00
1:53 am 01:53 Mostly Cloudy with Light Rain 68 20 65 18.3 90 90 E 5 7 29.88 1012 10 16 0.00 0.03
2:53 am 02:53 Mostly Cloudy with Nearby Thunderstorms 66 18.9 61 16.1 84 84 S 8 13 29.90 1013 10 16 0.00 0.03
3:32 am 03:32 Mostly Cloudy with Nearby Thunderstorms 66 19 63 17 88 88 N 9 15 29.85 1011 10 16 0.00 0.00
3:53 am 03:53 Mostly Cloudy with Thunderstorms 65 18.3 63 17.2 93 93 NNE 7 11 29.88 1012 9 14 0.07 1.78
4:53 am 04:53 Cloudy with Thunderstorms 65 18.3 63 17.2 93 93 ESE 12 19 29.92 1013 10 16 0.00 0.03
5:10 am 05:10 Cloudy with Nearby Thunderstorms 63 17 61 16 94 94 E 8 13 29.91 1013 3 5 0.00 0.00
5:44 am 05:44 Mostly Clear 64 17.8 61 16.1 90 90 E 12 19 29.85 1011 10 16 0.16 4.06
5:53 am 05:53 Mostly Clear 63 17.2 60 15.6 90 90 E 6 9 29.93 1013 10 16 0.16 4.06
6:53 am 06:53 Mostly Cloudy 64 17.8 62 16.7 93 93 SE 6 9 29.91 1013 10 16 0.00 0.00
7:23 am 07:23 Cloudy 65 18.3 63 17.2 93 93 SSE 5 7 29.91 1013 9 14 0.00 0.00
7:30 am 07:30 Cloudy with Nearby Thunderstorms 64 18 63 17 94 94 SSE 5 7 29.91 1013 8 13 0.00 0.00
7:39 am 07:39 Cloudy with Nearby Thunderstorms 64 18 63 17 94 94 Calm 29.91 1013 2 3 0.00 0.00
7:53 am 07:53 Cloudy with Nearby Thunderstorms 64 17.8 63 17.2 96 96 VRB 5 7 29.90 1013 1 1 0.24 6.10
7:57 am 07:57 Cloudy with Nearby Thunderstorms 64 17.8 63 17.2 96 96 SSE 7 11 29.88 1012 2 3 0.00 0.03
8:05 am 08:05 Cloudy with Nearby Thunderstorms 64 17.8 62 16.7 93 93 NNE 9 15 29.88 1012 7 11 0.00 0.03
8:19 am 08:19 Cloudy with Nearby Thunderstorms 64 17.8 62 16.7 93 93 E 20 31 29.83 1010 5 8 0.01 0.25
8:37 am 08:37 Mostly Cloudy with Light Rain 64 17.8 63 17.2 96 96 ENE 29 46 29.74 1007 10 16 0.02 0.51
8:53 am 08:53 Mostly Sunny 65 18.3 62 16.7 90 90 NE 21 33 29.80 1009 10 16 0.02 0.51
9:04 am 09:04 Partly Cloudy 64 18 63 17 94 94 WSW 17 28 29.88 1012 10 16 0.00 0.00
9:13 am 09:13 Partly Cloudy 65 18.3 62 16.7 90 90 SSW 17 28 29.88 1012 10 16 0.00 0.00
9:53 am 09:53 Partly Cloudy 66 18.9 60 15.6 81 81 S 16 26 29.93 1013 10 16 0.00 0.00
10:53 am 10:53 Partly Cloudy 67 19.4 61 16.1 81 81 S 16 26 29.93 1013 10 16 0.00 0.00
11:53 am 11:53 Sunny 73 22.8 63 17.2 71 71 SSE 12 19 29.94 1014 10 16 0.00 0.00
12:51 pm 12:51 Sunny with Nearby Thunderstorms 73 23 64 18 74 74 SSE 8 13 29.91 1013 10 16 0.00 0.00
12:53 pm 12:53 Sunny with Nearby Thunderstorms 73 22.8 63 17.2 71 71 SE 9 15 29.96 1015 10 16 0.00 0.00
1:20 pm 13:20 Partly Cloudy with Thunderstorms 72 22 63 17 73 73 S 7 11 29.91 1013 10 16 0.00 0.00
1:53 pm 13:53 Partly Cloudy with Nearby Thunderstorms 73 22.8 65 18.3 76 76 NW 9 15 30.00 1016 10 16 0.03 0.76
2:08 pm 14:08 Mostly Sunny 75 24 64 18 69 69 VRB 7 11 29.91 1013 10 16 0.00 0.00
2:53 pm 14:53 Sunny 76 24.4 62 16.7 62 62 ENE 5 7 30.00 1016 10 16 0.00 0.00
3:53 pm 15:53 Mostly Cloudy 73 22.8 66 18.9 79 79 ENE 15 24 29.96 1014 10 16 0.00 0.00
4:53 pm 16:53 Sunny 75 23.9 66 18.9 74 74 ESE 16 26 29.93 1014 10 16 0.00 0.00
5:46 pm 17:46 Mostly Cloudy 74 23.3 67 19.4 79 79 SE 18 30 29.85 1011 10 16 0.00 0.00
5:53 pm 17:53 Partly Cloudy 74 23.3 66 18.9 76 76 SE 20 31 29.89 1012 10 16 0.00 0.00
6:36 pm 18:36 Mostly Cloudy 72 22.2 66 18.9 82 82 E 9 15 29.88 1012 10 16 0.00 0.00
6:53 pm 18:53 Cloudy 72 22.2 65 18.3 79 79 E 10 17 29.94 1014 10 16 0.00 0.00
7:36 pm 19:36 Cloudy with Thunderstorms 70 21 63 17 78 78 SE 7 11 29.91 1013 10 16 0.00 0.00
7:53 pm 19:53 Cloudy with Thunderstorms 68 20 62 16.7 81 81 SE 9 15 29.93 1014 10 16 0.00 0.03
8:24 pm 20:24 Cloudy with Strong Thunderstorms 64 18 63 17 94 94 N 5 7 29.94 1014 1 1 0.00 0.00
8:32 pm 20:32 Cloudy with Strong Thunderstorms 64 18 63 17 94 94 NE 14 22 29.91 1013 0 0 0.00 0.00
8:42 pm 20:42 Cloudy with Thunderstorms 64 18 63 17 94 94 ENE 9 15 29.88 1012 1 2 0.00 0.00
8:46 pm 20:46 Cloudy with Thunderstorms 65 18.3 63 17.2 93 93 E 8 13 29.91 1013 4 6 1.27 32.26
8:53 pm 20:53 Cloudy with Thunderstorms 65 18.3 63 17.2 93 93 ENE 7 11 29.95 1014 9 14 1.27 32.26
9:12 pm 21:12 Cloudy with Thunderstorms 66 19 64 18 94 94 ENE 12 19 29.91 1013 10 16 0.00 0.00
9:23 pm 21:23 Mostly Cloudy with Thunderstorms 65 18.3 64 17.8 97 97 ENE 13 20 29.91 1013 10 16 0.02 0.51
9:38 pm 21:38 Mostly Cloudy with Thunderstorms 64 18 64 18 100 100 ESE 10 17 29.94 1014 10 16 0.00 0.00
9:46 pm 21:46 Mostly Cloudy with Thunderstorms 65 18.3 63 17.2 93 93 E 15 24 29.91 1013 10 16 0.02 0.51
9:53 pm 21:53 Cloudy with Thunderstorms 65 18.3 63 17.2 93 93 E 12 19 29.97 1015 10 16 0.02 0.51
10:04 pm 22:04 Cloudy with Nearby Thunderstorms 64 18 63 17 94 94 ESE 8 13 29.94 1014 10 16 0.00 0.00
10:26 pm 22:26 Cloudy 65 18.3 63 17.2 93 93 ESE 9 15 29.94 1014 10 16 0.00 0.00
10:33 pm 22:33 Cloudy with Nearby Thunderstorms 64 18 63 17 94 94 E 9 15 29.94 1014 10 16 0.00 0.00
10:53 pm 22:53 Cloudy 64 17.8 62 16.7 93 93 E 13 20 29.98 1015 10 16 0.00 0.03
11:53 pm 23:53 Mostly Cloudy 63 17.2 60 15.6 90 90 SE 6 9 30.00 1016 10 16 0.00 0.00

Powered by AerisWeather